SL-16 DEB, 22620

Orbit data source: Space-Track

SL-16 DEB, 22620 is space debris in LEO originally from a launch on Fri, 26 Mar 1993 UTC launched from the Tyuratam Missile And Space Complex (TTMTR). Debris objects in space refer to the collection of defunct objects orbiting the Earth. Examples of debris include non-operational satellites, rocket bodies, and fragments generated from explosions, collisions, or faulty payload assembly.

Loading next visibility...
Identifier
22620, 1993-016AE
Orbit
LEO
Country
Flag of CISCIS
Related business
Manufacturer
Unknown
Mission
Spacecraft
Bus & Motor
Unknown
Mass
Unknown
Launch date (UTC)
1993-03-26 (33 years ago)
Launch vehicle
Unknown
Launch site
Tyuratam Missile And Space Complex (TTMTR)
Object type
Payload
Rocket body
Debris
Shape & HBR
Unknown shape, 0.3 m
Radar Cross Section
Medium (>0.1 m² and <1 m²)

Expand to show TLE details & history
Last TLE update: 9 hours ago

TLE from 9 hours ago
0 SL-16 DEB
1 22620U 93016AE  25309.99218977 -.00000008  00000-0  29790-4 0  9992
2 22620  71.0053 281.2336 0134094 174.5083 245.1107 13.84104217646652
Epoch: 2025-11-05T23:48Z
TLE epoch observation values (Epoch: 2025-11-05T23:48:45.196Z)
Latitude
53.61508°
Longitude
-93.71866°
Altitude
1,000.043 km
Speed
7.336 km/s
True Right ascension
20h 35m 42s
True Declination
53° 27' 22"
Sunlit
Object was in daylight at epoch
Visualization orbit readout
Latitude
Unknown
Longitude
Unknown
Altitude
Unknown
Speed
Unknown
Apparent Right ascension
Unknown
Apparent Declination
Unknown
Sunlit
N/A
Visualization observer readout
Local Sidereal Time
05:10:20
Azimuth
Unknown
Elevation
Unknown
Doppler factor
Unknown
Orbital elements
Apogee altitude
1,045.55 km
Perigee altitude
849.09 km
Semi-major axis
7,325.457 km
Eccentricity
0.01341
Inclination
71.0053°
RAAN
281.2336°
Arg. of periapsis
174.5083°
True anomaly
243.72671°
Mean anomaly
245.1107°
Eccentric anomaly
244.41772°
Mean motion
3.46171 °/min
Orbital period
103.99 mins
BSTAR
0.00002979
Loading maneuver chart data...
Computing Atmospheric mass density...
Loading historical data...
Loading historical data...
Loading historical data...
Loading historical data...
Loading historical data...
Loading historical data...
Loading historical data...

Documentation

Showing up to 5 results
|